Howell, MI

5:51 AM EDT on September 21, 2017 (GMT -0400)
Livingston County

Weather History for KOZW - October, 2014

Change the Weather History Date:

Wednesday, October 8, 2014

  Actual Average Record
Temperature  
Mean Temperature 50 °F -  
Max Temperature 58 °F 63 °F 89 °F (2007)
Min Temperature 42 °F 42 °F 28 °F (2001)
Degree Days  
Heating Degree Days 15    
Moisture  
Dew Point 37 °F    
Average Humidity 66    
Maximum Humidity 100    
Minimum Humidity 33    
Precipitation  
Precipitation 0.00 in - - ()
Sea Level Pressure  
Sea Level Pressure 29.88 in    
Wind  
Wind Speed 9 mph (WSW)    
Max Wind Speed 25 mph    
Max Gust Speed 39 mph    
Visibility 10 miles    
Events      
Averages and records for this station are not official NWS values.
T = Trace of Precipitation, MM = Missing Value Source: NWS Daily Summary

Daily Weather History Graph

Daily Weather History Graph

Search for Another Location

Airport or City:

Trip Planner

Search our weather history database for the weather conditions in past years. The results will help you decide how hot, cold, wet, or windy it might be!

Date:

Astronomy

Oct. 08, 2014 Rise Set
Actual Time 7:40 AM EDT 7:05 PM EDT
Civil Twilight 7:12 AM EDT 7:33 PM EDT
Nautical Twilight 6:40 AM EDT 8:05 PM EDT
Astronomical Twilight 6:07 AM EDT 8:38 PM EDT
Moon 7:18 PM EDT (10/8) 7:46 AM EDT (10/8)
Length of Visible Light 12h 20m
Length of Day
11h 24m
Full, 100% of the Moon is Illuminated
Oct 8
Full
Oct 15
Last Quarter
Oct 23
New
Oct 30
First Quarter
Nov 6
Full

Hourly Weather History & Observations

Time (EDT) Temp. Windchill Dew Point Humidity Pressure Visibility Wind Dir Wind Speed Gust Speed Precip Events Conditions
12:19 AM 46.4 °F 45.2 °F 46.4 °F 100% 29.75 in 7.0 mi WSW 3.5 mph - N/A   Mostly Cloudy
12:39 AM 48.2 °F - 46.4 °F 93% 29.75 in 10.0 mi SW 4.6 mph - N/A   Mostly Cloudy
12:59 AM 48.2 °F - 48.2 °F 100% 29.75 in 10.0 mi SW 3.5 mph - N/A   Mostly Cloudy
1:19 AM 46.4 °F 45.2 °F 46.4 °F 100% 29.74 in 10.0 mi SSW 3.5 mph - N/A   Scattered Clouds
1:39 AM 48.2 °F - 48.2 °F 100% 29.74 in 10.0 mi SW 4.6 mph - N/A   Mostly Cloudy
1:59 AM 48.2 °F - 48.2 °F 100% 29.75 in 10.0 mi WSW 6.9 mph - N/A   Overcast
2:19 AM 50.0 °F - 48.2 °F 94% 29.76 in 10.0 mi WSW 8.1 mph - N/A   Overcast
2:37 AM 50.0 °F - 48.2 °F 94% 29.77 in 10.0 mi WSW 8.1 mph - N/A   Overcast
2:59 AM 50.0 °F - 48.2 °F 94% 29.77 in 10.0 mi WSW 6.9 mph - N/A   Overcast
3:19 AM 48.2 °F - 46.4 °F 93% 29.77 in 10.0 mi WSW 4.6 mph - N/A   Overcast
3:40 AM 48.2 °F - 46.4 °F 93% 29.77 in 10.0 mi WSW 5.8 mph - N/A   Mostly Cloudy
3:58 AM 48.2 °F - 46.4 °F 93% 29.77 in 10.0 mi WSW 5.8 mph - N/A   Overcast
4:19 AM 48.2 °F - 46.4 °F 93% 29.78 in 10.0 mi WSW 5.8 mph - N/A   Overcast
4:39 AM 48.2 °F - 46.4 °F 93% 29.78 in 10.0 mi WSW 8.1 mph - N/A   Overcast
4:59 AM 48.2 °F - 46.4 °F 93% 29.78 in 10.0 mi West 5.8 mph - N/A   Scattered Clouds
5:19 AM 46.4 °F 43.5 °F 44.6 °F 93% 29.79 in 10.0 mi West 5.8 mph - N/A   Clear
5:39 AM 46.4 °F 42.9 °F 44.6 °F 93% 29.80 in 10.0 mi West 6.9 mph - N/A   Clear
5:59 AM 46.4 °F 42.9 °F 42.8 °F 87% 29.80 in 10.0 mi West 6.9 mph - N/A   Clear
6:19 AM 44.6 °F 42.2 °F 41.0 °F 87% 29.81 in 10.0 mi WSW 4.6 mph - N/A   Clear
6:37 AM 42.8 °F 40.1 °F 41.0 °F 93% 29.82 in - WSW 4.6 mph - N/A   Unknown
6:57 AM 42.8 °F 39.3 °F 41.0 °F 93% 29.83 in 10.0 mi WSW 5.8 mph - N/A   Clear
7:19 AM 42.8 °F 38.6 °F 41.0 °F 93% 29.84 in 10.0 mi WSW 6.9 mph - N/A   Clear
7:37 AM 42.8 °F 38.6 °F 41.0 °F 93% 29.85 in 10.0 mi West 6.9 mph - N/A   Clear
7:57 AM 44.6 °F 40.7 °F 41.0 °F 87% 29.86 in 10.0 mi West 6.9 mph - N/A   Clear
8:21 AM 44.6 °F 41.4 °F 41.0 °F 87% 29.87 in 10.0 mi WSW 5.8 mph - N/A   Clear
8:37 AM 44.6 °F 40.7 °F 41.0 °F 87% 29.88 in 10.0 mi WSW 6.9 mph - N/A   Clear
8:57 AM 46.4 °F 42.9 °F 41.0 °F 81% 29.88 in 10.0 mi WSW 6.9 mph - N/A   Scattered Clouds
9:19 AM 46.4 °F 41.9 °F 39.2 °F 76% 29.89 in 10.0 mi WSW 9.2 mph - N/A   Clear
9:37 AM 48.2 °F - 39.2 °F 71% 29.90 in 10.0 mi West 12.7 mph - N/A   Clear
9:58 AM 50.0 °F - 39.2 °F 66% 29.91 in 10.0 mi WSW 13.8 mph 18.4 mph N/A   Clear
10:17 AM 50.0 °F - 39.2 °F 66% 29.91 in 10.0 mi West 17.3 mph 23.0 mph N/A   Clear
10:37 AM 51.8 °F - 37.4 °F 58% 29.91 in 3.0 mi West 20.7 mph 31.1 mph N/A   Haze
10:57 AM 51.8 °F - 35.6 °F 54% 29.91 in 10.0 mi West 20.7 mph 28.8 mph N/A   Clear
11:19 AM 51.8 °F - 32.0 °F 47% 29.91 in 10.0 mi West 19.6 mph 28.8 mph N/A   Clear
11:38 AM 53.6 °F - 32.0 °F 44% 29.91 in 10.0 mi West 15.0 mph 29.9 mph N/A   Scattered Clouds
11:57 AM 53.6 °F - 32.0 °F 44% 29.92 in 10.0 mi West 18.4 mph 32.2 mph N/A   Scattered Clouds
12:17 PM 55.4 °F - 32.0 °F 41% 29.91 in 10.0 mi West 19.6 mph 31.1 mph N/A   Scattered Clouds
12:37 PM 53.6 °F - 30.2 °F 41% 29.92 in 10.0 mi West 23.0 mph 32.2 mph N/A   Mostly Cloudy
1:01 PM 53.6 °F - 30.2 °F 41% 29.92 in 10.0 mi West 15.0 mph 25.3 mph N/A   Overcast
1:17 PM 55.4 °F - 32.0 °F 41% 29.91 in 10.0 mi WSW 18.4 mph 27.6 mph N/A   Overcast
1:37 PM 53.6 °F - 30.2 °F 41% 29.91 in 10.0 mi West 20.7 mph 28.8 mph N/A   Overcast
1:47 PM 55.8 °F - 30.4 °F 38% 29.91 in 10.0 mi WSW 24.2 mph 33.4 mph N/A   Overcast
1:55 PM 55.0 °F - 30.6 °F 39% 29.91 in 10.0 mi West 19.6 mph 29.9 mph N/A   Overcast
2:15 PM 57.9 °F - 31.1 °F 36% 29.90 in 10.0 mi WSW 17.3 mph 29.9 mph N/A   Overcast
2:55 PM 57.2 °F - 29.8 °F 35% 29.89 in 10.0 mi West 18.4 mph 29.9 mph N/A   Scattered Clouds
3:15 PM 58.1 °F - 29.5 °F 34% 29.89 in 10.0 mi WSW 23.0 mph 36.8 mph N/A   Scattered Clouds
3:35 PM 58.1 °F - 30.4 °F 35% 29.90 in 10.0 mi West 23.0 mph 31.1 mph N/A   Scattered Clouds
3:55 PM 58.3 °F - 29.1 °F 33% 29.90 in 10.0 mi West 25.3 mph 39.1 mph N/A   Scattered Clouds
4:15 PM 57.6 °F - 28.8 °F 33% 29.90 in 10.0 mi West 23.0 mph 33.4 mph N/A   Scattered Clouds
4:35 PM 57.4 °F - 28.4 °F 33% 29.91 in 10.0 mi West 16.1 mph 33.4 mph N/A   Scattered Clouds
4:55 PM 56.1 °F - 28.2 °F 34% 29.91 in 10.0 mi West 23.0 mph 35.7 mph N/A   Scattered Clouds
5:15 PM 56.1 °F - 28.9 °F 35% 29.92 in 10.0 mi West 21.9 mph 35.7 mph N/A   Scattered Clouds
5:35 PM 55.6 °F - 30.0 °F 38% 29.92 in 10.0 mi West 18.4 mph 24.2 mph N/A   Mostly Cloudy
5:55 PM 55.6 °F - 30.4 °F 38% 29.93 in 10.0 mi West 18.4 mph 28.8 mph N/A   Mostly Cloudy
6:14 PM 54.9 °F - 30.9 °F 40% 29.93 in 10.0 mi West 16.1 mph 26.5 mph N/A   Scattered Clouds
6:35 PM 54.7 °F - 31.8 °F 42% 29.93 in 10.0 mi West 11.5 mph 19.6 mph N/A   Mostly Cloudy
6:55 PM 53.8 °F - 32.0 °F 44% 29.93 in 10.0 mi West 9.2 mph 16.1 mph N/A   Mostly Cloudy
7:14 PM 53.4 °F - 32.7 °F 45% 29.93 in 10.0 mi West 6.9 mph - N/A   Overcast
7:35 PM 52.0 °F - 32.9 °F 48% 29.95 in 10.0 mi West 6.9 mph - N/A   Mostly Cloudy
7:55 PM 51.8 °F - 33.8 °F 50% 29.95 in 10.0 mi West 4.6 mph - N/A   Mostly Cloudy
8:14 PM 50.9 °F - 34.2 °F 53% 29.95 in 10.0 mi WSW 4.6 mph - N/A   Overcast
8:35 PM 49.5 °F - 34.2 °F 56% 29.96 in 10.0 mi WSW 4.6 mph - N/A   Mostly Cloudy
8:55 PM 49.8 °F - 34.0 °F 55% 29.96 in 10.0 mi Calm Calm - N/A   Scattered Clouds
9:15 PM 49.8 °F - 34.0 °F 55% 29.96 in 10.0 mi Calm Calm - N/A   Mostly Cloudy
9:35 PM 46.6 °F - 36.5 °F 68% 29.97 in 10.0 mi Calm Calm - N/A   Mostly Cloudy
9:54 PM 46.9 °F - 36.5 °F 67% 29.98 in 10.0 mi Calm Calm - N/A   Mostly Cloudy
10:15 PM 46.9 °F - 36.5 °F 67% 29.98 in 10.0 mi Calm Calm - N/A   Overcast
10:35 PM 47.5 °F - 36.5 °F 66% 29.98 in 10.0 mi Calm Calm - N/A   Mostly Cloudy
10:54 PM 46.4 °F - 37.0 °F 70% 29.98 in 10.0 mi Calm Calm - N/A   Mostly Cloudy
11:15 PM 45.7 °F - 37.2 °F 72% 29.98 in 10.0 mi Calm Calm - N/A   Mostly Cloudy
11:35 PM 43.9 °F - 37.2 °F 77% 29.98 in 10.0 mi Calm Calm - N/A   Scattered Clouds
11:55 PM 42.8 °F 41.1 °F 38.1 °F 84% 29.98 in 10.0 mi SSW 3.5 mph - N/A   Mostly Cloudy